Location: Mesa
(33.4220°N, 111.8220°W)
Time: 22:20:47
(UTC-07:00)

N. Korean satellite - Pass Details

Date: 23 November 2019
Orbit: 456 x 506 km, 97.2° (Epoch: 05 December)

Event Time Altitude Azimuth Distance (km) Brightness Sun altitude
Rises 05:20:31 0° 33° (NNE) 2,587 10.6 -21.8°
Reaches altitude 10° 05:23:22 10° 58° (ENE) 1,689 9.9 -21.2°
Maximum altitude 05:25:29 15° 94° (E) 1,401 9.9 -20.8°
Drops below altitude 10° 05:27:35 10° 130° (SE) 1,665 10.2 -20.3°
Sets 05:30:21 0° 154° (SSE) 2,527 10.7 -19.8°
